Weather past 2 weeks in Cayenne, French Guiana

Now
77 °F

Light rain. Partly cloudy.


Feels Like: 78 °F
Forecast: 80 / 83 °F
Wind: 6 mph from Northeast

Location: Cayenne / Rochambeau

Current Time: Apr 1, 2015 at 2:53:02 AM

Latest Report: Apr 1, 2015 at 2:30 AM


Visibility: N/A

Pressure: 29.92 "Hg

Humidity: 89%

Dew point: 73 °F

Location of CayenneLocation

Historic Weather in Cayenne — Graph

°F

Cayenne temperature yesterday

Maximum temperature yesterday: 86 °F (at 12:30 PM)
Minimum temperature yesterday: 75 °F (at 12:30 AM)
Average temperature yesterday: 79 °F

Past Weeks' High & Low Weather Summary

 TemperatureHumidityPressure
High88 °F (Mar 23, 11:00 AM)100% (Mar 17, 2:00 AM)30.04 "Hg (Mar 17, 2:00 AM)
Low72 °F (Mar 21, 3:30 AM)55% (Mar 20, 2:00 PM)29.80 "Hg (Mar 18, 4:30 PM)
Average79 °F84%29.92 "Hg
* Reported Mar 17 2:00 AM — Apr 1 2:00 AM, Cayenne, Weather by CustomWeather, © 2015

Note: Actual official high and low records may vary slightly from our data, if they occured in-between our weather recording intervals... More about our weather records

Advertising

Cayenne weather history for previous 24 hours

 ConditionsComfort  
Time TempWeatherWind HumidityBarometerVisibility
2:00 AM
Wed, Apr 1
79 °FPartly cloudy.5 mph84%29.92 "HgN/A
1:30 AM79 °FMostly cloudy.7 mph84%29.92 "HgN/A
1:00 AM79 °FMostly cloudy.7 mph84%29.95 "HgN/A
12:30 AM79 °FPassing clouds.7 mph84%29.95 "HgN/A
12:00 AM79 °FPartly cloudy.6 mph84%29.95 "HgN/A
11:30 PM
Tue, Mar 31
79 °FOvercast.5 mph84%29.95 "HgN/A
11:00 PM79 °FOvercast.3 mph84%29.95 "HgN/A
10:30 PM79 °FOvercast.7 mph79%29.95 "HgN/A
10:00 PM79 °FWarm.7 mph84%29.95 "HgN/A
9:30 PM79 °FPassing clouds.5 mph84%29.95 "HgN/A
9:00 PM79 °FOvercast.8 mph84%29.92 "HgN/A
8:30 PM79 °FPartly cloudy.8 mph84%29.92 "HgN/A
8:00 PM79 °FPassing clouds.5 mph84%29.89 "HgN/A
7:30 PM79 °FPassing clouds.6 mph84%29.89 "HgN/A
7:00 PM77 °FWarm.7 mph89%29.89 "HgN/A
6:30 PM77 °FPartly sunny.6 mph89%29.89 "HgN/A
6:00 PM79 °FCloudy.9 mph84%29.89 "Hg4 mi
5:30 PM82 °FMostly cloudy.12 mph70%29.89 "HgN/A
5:00 PM82 °FPartly sunny.15 mph70%29.89 "HgN/A
4:30 PM82 °FMostly cloudy.15 mph74%29.86 "HgN/A
4:00 PM82 °FBroken clouds.16 mph74%29.86 "HgN/A
3:30 PM82 °FBroken clouds.17 mph79%29.86 "HgN/A
3:00 PM82 °FBroken clouds.15 mph74%29.89 "HgN/A
2:30 PM82 °FMostly cloudy.17 mph74%29.89 "HgN/A
2:00 PM82 °FPartly sunny.16 mph74%29.92 "HgN/A
1:30 PM81 °FLight rain. Partly sunny.17 mph79%29.92 "HgN/A
1:00 PM84 °FCloudy.16 mph70%29.95 "HgN/A
12:30 PM86 °FPartly sunny.17 mph66%29.95 "HgN/A
12:00 PM84 °FBroken clouds.17 mph66%29.95 "HgN/A
11:30 AM82 °FPartly sunny.15 mph79%29.98 "HgN/A
11:00 AM79 °FLight rain. Broken clouds.15 mph89%29.98 "HgN/A
10:30 AM81 °FBroken clouds.7 mph89%29.98 "HgN/A
10:00 AM81 °FLight rain. Partly sunny.14 mph79%29.98 "HgN/A
9:30 AM82 °FPartly sunny.10 mph74%29.98 "HgN/A
9:00 AM81 °FPartly sunny.10 mph79%29.95 "HgN/A
8:30 AM79 °FPartly sunny.No wind89%29.95 "HgN/A
8:00 AM77 °FBroken clouds.No wind94%29.95 "HgN/A
7:30 AM77 °FBroken clouds.No wind94%29.95 "HgN/A
7:00 AM75 °FLight rain. Fog.No wind94%29.92 "Hg3 mi
6:30 AM75 °FCloudy.No wind94%29.92 "HgN/A
6:00 AM75 °FMostly cloudy.No wind94%29.92 "HgN/A
5:30 AM75 °FMostly cloudy.No wind94%29.89 "HgN/A
5:00 AM75 °FOvercast.No wind94%29.89 "HgN/A
4:30 AM75 °FPartly cloudy.6 mph94%29.89 "HgN/A
4:00 AM75 °FPartly cloudy.5 mph94%29.89 "HgN/A
3:30 AM75 °FRain. Fog.8 mph94%29.89 "Hg2 mi
3:00 AM77 °FPassing clouds.No wind89%29.89 "HgN/A
2:30 AM77 °FOvercast.5 mph89%29.89 "HgN/A
2:00 AM77 °FOvercast.5 mph89%29.92 "HgN/A
Weather by CustomWeather, © 2015

See weather overviewHow to use our weather pages